196  
ASUS44 KLUB 221410  
RWRLUB  
WEST TEXAS WEATHER ROUNDUP  
NATIONAL WEATHER SERVICE LUBBOCK TX  
900 AM CDT MON OCT 22 2018  
 
NOTE: "FAIR" INDICATES FEW OR NO CLOUDS BELOW 12,000 FEET WITH NO  
SIGNIFICANT WEATHER AND/OR S TO VISIBILITY
.  
 
TXZ004-006>008-010-012-014-016-OKZ002-221500-  
TEXAS PANHANDLE/OKLAHOMA PANHANDLE  
 
CITY SKY/WX TMP DP RH WIND PRES REMARKS
 
AMARILLO SUNNY 50 42 74 SW9 30.13R  
BORGER SUNNY 52 41 66 SW10 30.10S  
CANADIAN SUNNY 49 45 85 CALM 30.09S  
DALHART SUNNY 47 41 80 NW6 30.11S  
DUMAS SUNNY 47 42 84 SW10 30.10F  
GUYMON SUNNY 47 42 83 NW6 30.08R  
HEREFORD MOSUNNY 48 44 86 SW6 30.16R  
PAMPA SUNNY 51 43 74 SW8 30.12S  
PERRYTON SUNNY 51 43 74 W9 30.07R  

 
 
TXZ026-029-035-045-048-221500-  
SOUTHERN PANHANDLE/SOUTH PLAINS/ROLLING PLAINS  
 
CITY SKY/WX TMP DP RH WIND PRES REMARKS
 
CHILDRESS CLOUDY 49 44 83 S8 30.15R  
SEMINOLE CLOUDY 47 46 97 CALM 30.22R  
LUBBOCK CLOUDY 47 43 86 SW7 30.16S  
PLAINVIEW CLOUDY 44 41 88 W6 30.16R  
SNYDER CLOUDY 50 47 91 S3 30.19R  

 
 
TXZ052-054-060>062-072-078-127-140-154-169-221500-  
PERMIAN BASIN/CONCHO VALLEY/BIG COUNTRY/EDWARDS PLATEAU  
 
CITY SKY/WX TMP DP RH WIND PRES REMARKS
 
ABILENE MOSUNNY 55 47 74 S7 30.19R  
BIG SPRING CLOUDY 51 46 84 CALM 30.20R  
BRADY CLOUDY 55 48 76 S3 30.21R  
BROWNWOOD CLOUDY 50 50 100 CALM 30.21R  
JUNCTION CLOUDY 58 51 78 CALM 30.21R  
MIDLAND CLOUDY 52 48 86 S6 30.17S  
ODESSA CLOUDY 51 46 83 S3 30.18R  
SAN ANGELO CLOUDY 54 50 86 CALM 30.18R  
SONORA CLOUDY 55 54 94 CALM 30.24R  
SWEETWATER CLOUDY 54 47 76 S7 30.21R  
WINK CLOUDY 51 45 79 SE5 30.16R  

 
 
TXZ055-058-074-075-080-082-221500-  
FAR WEST/SOUTHWEST MOUNTAINS/TRANS PECOS  
 
CITY SKY/WX TMP DP RH WIND PRES REMARKS
 
ALPINE CLOUDY 55 50 84 CALM 30.27R  
DRYDEN N/A 54 49 83 CALM 30.19R  
EL PASO MOCLDY 58 50 75 S7 30.15R  
FORT STOCKTON CLOUDY 54 47 77 S8 30.17R  
MARFA N/A 51 49 92 CALM 30.24R  
PECOS CLOUDY 50 48 95 CALM 30.17R  
PRESIDIO CLOUDY 59 53 80 CALM 30.19R  

 
 
TXZ014-016-019-021>030-083-221500  
TEXAS TECH WEST TEXAS MESONET/TEXAS PANHANDLE/NORTHERN SOUTH PLAINS  
 
CITY SKY/WX TMP DP RH WIND PRES REMARKS
 
ABERNATHY 5ENE N/A 46 44 93 W7 30.20R  
AMARILLO 9NNE N/A 51 44 75 S8 30.15R  
AMARILLO 7SSE N/A 49 42 76 SW8 30.17R  
AMHERST 1NE N/A 48 43 82 SW5 30.18S  
BOOTLEG 11WNW N/A 48 44 85 SW12 30.19R  
CANADIAN 6E N/A 51 43 73 SE5 30.10R  
CAPROCK CYN SP N/A 51 45 79 S12 30.16S  
CHILDRESS 2NNE N/A 50 44 81 S6 30.16R  
CLARENDON 2WSW N/A 54 42 65 SW12 30.15S  
CLAUDE 12SW N/A 51 40 65 SW10 30.16R  
DIMMITT 2NE N/A 46 42 84 SW8 30.18R  
FLOYDADA 2NNE N/A 45 42 90 W7 30.18R  
FRIONA 2NE N/A 48 44 86 SW6 30.18S  
GOODLETT 3W N/A 48 45 90 S3 30.15S  
HART 3N N/A 46 44 90 SW8 30.18R  
HEREFORD 2NW N/A 48 42 79 SW7 30.18R  
MCLEAN 1E N/A 50 40 68 SW9 30.13R  
MEMPHIS 1NE N/A 47 46 94 N2 30.16R  
MULESHOE 2SSW N/A 47 45 94 S2 30.18S  
OLTON 6S N/A 44 42 91 W2 30.18F  
PALO DURO SP N/A 51 41 70 S3 30.17R  
PAMPA 2E N/A 51 43 75 SW7 30.12S  
PLAINVIEW 1S N/A 48 44 87 W6 30.18R  
SILVERTON 7ESE N/A 52 43 71 SW16 30.14R  
TULIA 2ENE N/A 49 43 79 SW15 30.17R  
TURKEY 2WSW N/A 49 44 84 S7 30.16R  
UMBARGER 3NNE N/A 46 42 84 SW10 30.16R  

 
 
TXZ033>036-039>041-045>048-221500  
TEXAS TECH WEST TEXAS MESONET/SOUTH PLAINS  
 
CITY SKY/WX TMP DP RH WIND PRES REMARKS
 
AIKEN 3WSW N/A 46 43 91 W5 30.19R  
ANDREWS 2NE N/A 50 45 83 CALM 30.21R  
ANTON 6SSW N/A 44 42 95 NW3 30.20R  
BROWNFIELD 2S N/A 48 44 88 SW3 30.20R  
DENVR CTY 7WNW N/A 46 43 89 W2 30.20R  
GAIL 2ESE N/A 50 46 84 SE1 30.19R  
LAMESA 2SE N/A 47 45 91 CALM 30.20R  
LUBBOCK 3WNW N/A 46 45 97 SW3 30.20R  
MORTON 1ENE N/A 47 44 91 SW2 30.18S  
ODONNELL 1N N/A 48 44 87 S3 30.20R  
PLAINS 3N N/A 48 44 85 S3 30.20R  
RALLS 1SE N/A 48 43 82 SW7 30.19R  
REESE CENTER N/A 44 42 91 SW5 30.20R  
SEAGRAVES 1SW N/A 46 44 96 N1 30.20R  
SEMINOLE 2NNE N/A 47 44 90 SE1 30.19R  
SLATON 2NE N/A 48 44 85 SW8 30.19R  
SNYDER 3E N/A 50 47 90 S3 30.19R  
SUNDOWN 8SW N/A 44 41 89 SW5 30.19R  
TAHOKA 3NNE N/A 50 45 81 S6 30.20R  
WOLFFORTH 6SSW N/A 46 44 92 SW5 30.20R  

 
 
TXZ031-032-036>038-042>044-221500-  
TEXAS TECH WEST TEXAS MESONET/ROLLING PLAINS  
 
CITY SKY/WX TMP DP RH WIND PRES REMARKS
 
ASPERMONT 3NE N/A 51 48 89 S5 30.18R  
FLUVANNA 3WNW N/A 50 45 83 SE1 30.19R  
GRAHAM 5SSW N/A 49 43 79 W9 30.19R  
GUTHRIE 10WSW N/A 51 44 77 S8 30.16R  
HASKELL 1NW N/A 54 47 76 S7 30.18R  
JAYTON 1SSE N/A 50 45 82 SW2 30.17R  
KNOX CITY 3NW N/A 53 49 89 S6 30.18R  
LK A HENRY 1NW N/A 50 48 92 SW3 30.19R  
NORTHFIELD 1S N/A 50 44 80 S7 30.16R  
ODELL 4ENE N/A 52 49 89 SE3 30.18R  
PADUCAH 10SW N/A 50 47 89 SE3 30.17R  
POST 1NE N/A 50 46 85 S3 30.19R  
RRING SPRGS 3N N/A 49 46 88 S6 30.16R  
SEYMOUR 3NW N/A 53 47 82 SE5 30.18R  
SPUR 1W N/A 48 45 90 SW2 30.18R  
WEINERT 2NNE N/A 55 47 74 S7 30.18R  
WHITE RVR 6NE N/A 52 44 72 SW7 30.17R  

 
 
TXZ052-054-060>062-072-078-127-140-154-169-221500-  
TEXAS TECH WEST TEXAS MESONET/PERMIAN BASIN/  
CONCHO VALLEY/BIG COUNTRY/EDWARDS PLATEAU  
 
CITY SKY/WX TMP DP RH WIND PRES REMARKS
 
COYANOSA 2N N/A 53 51 94 SW2 30.19R  
JUNCTION 1SSW N/A 56 55 95 CALM 30.22S  
MERTZON 3NNE N/A 53 52 97 CALM 30.22R  
SAN ANGELO 7NW N/A 54 50 86 SE1 30.21R  
STRLNG CT 4WSW N/A 50 50 98 CALM 30.21R  
ST LAWRNCE 5SW N/A 53 49 89 SE5 30.19S  
SWEETWATR 11SW N/A 53 48 83 SE6 30.21R  
WALL 1E N/A 55 51 88 S5 30.21R  

 
 
TXZ055-058-074-075-080-082-221500-  
TEXAS TECH WEST TEXAS MESONET/FAR WEST/SOUTHWEST MOUNTAINS/TRANS PECOS  
 
CITY SKY/WX TMP DP RH WIND PRES REMARKS
 
PRSMN GAP BBNP N/A 54 51 89 NE10 30.21R  
GUADLPE MTN NP N/A 52 47 84 NE5 30.24R  

 
 
 
CLICK HERE TO GO TO PREVIOUS BULLETINS.

The Nexlab TX Page Main Text Page